Вернуться в каталог

BREEZE-M DEB

LostHEO
NORAD 48538·DEBRIS·🇷🇺 Russia

Запущен Mar 14, 2008 с Baikonur Cosmodrome

Loading…

Ближайшие Пролёты (ближайшие 24 часа)

TLE

УстаревшееSource: Space-Track

Эпоха: Feb 7, 2023, 04:37 UTC

1 48538U 08011ED  23038.19240736  .00000299  00000-0  17459-2 0  9994
2 48538  50.2708  11.4951 6533454 208.0839  91.4430  3.10208391984956

Отслеживайте BREEZE-M DEB в реальном времени с AllMySat

Download on the App Store